[[{"header":{"parameterUnit":"m.s-1","parameterCategory":2,"la1":30.2992,"la2":30.254,"lo1":-89.0895,"lo2":-89.0443,"dy":0.0025,"dx":0.0025,"nx":19,"ny":19,"refTime":"2026-04-15T09:00:00:Z","depth":"0","parameterNumber":2,"parameterNumberName":"U-component_of_CURRENTS"},"data":[0,0,0,0.0497,0.0496,0.0467,0.0467,0.0522,0.0523,0,0,0,0,0,0,0,0,0,0,0,0.0516,0.0516,0.0497,0.0496,0.0467,0.0467,0.0522,0.0523,0,0,0,0,0,0,0,0,0,0,0,0.0516,0.0516,0.0515,0.0496,0.0467,0.0467,0.0522,0.0524,0,0,0,0,0,0,0,0,0,0,0.0542,0.054,0.0516,0.0515,0.0495,0.0467,0.0467,0.0523,0.0524,0.0557,0,0.0546,0,0.0528,0.0527,0.0527,0,0,0,0.051,0.054,0.0529,0.0515,0.0495,0.0467,0.0484,0.0523,0.0524,0.0558,0.0547,0.0548,0.0529,0.0528,0.0528,0.0645,0.0646,0,0,0.0511,0.0518,0.0528,0.0529,0.0482,0.0485,0.0483,0.0523,0.0525,0.0547,0.0548,0.053,0.0528,0.0529,0.0644,0.0645,0,0,0,0.0507,0.0519,0.0506,0.0528,0.0511,0.0484,0.0482,0.0524,0.0518,0.0549,0.053,0.0528,0.0529,0.0644,0.0645,0.0699,0,0,0,0.0508,0.0515,0.0506,0.0511,0.0509,0.0503,0.0482,0.0515,0.0518,0.053,0.0528,0.053,0.0643,0.0644,0.0696,0.0774,0,0,0,0.0518,0.0516,0.051,0.0511,0.0491,0.0502,0.0498,0.0515,0.0507,0.0527,0.053,0.0642,0.0644,0.0693,0.0767,0.0941,0,0,0,0.0531,0.0525,0.051,0.0514,0.0491,0.0505,0.0498,0.0507,0.0524,0.0529,0.0643,0.0645,0.0692,0.0763,0.0935,0.1061,0.11,0,0,0.0531,0.0525,0.0532,0.0518,0.0541,0.051,0.0566,0.0575,0.057,0.0636,0.0638,0.0697,0.0766,0.094,0.1168,0.1204,0,0,0,0.0539,0.0553,0.0558,0.0568,0.0563,0.0603,0.0596,0.0614,0.0666,0.0585,0.072,0.0764,0.0871,0.0934,0.0963,0.096,0.0653,0.0653,0.0653,0.0591,0.059,0.0618,0.0633,0.0648,0.0672,0.072,0.0753,0.072,0.0757,0.0822,0.1016,0.1078,0.1103,0.1096,0.081,0.081,0.081,0.081,0.0645,0.0675,0.0683,0.0709,0.0741,0.079,0.0858,0.086,0.1011,0.091,0.1011,0.1004,0.1138,0.112,0.0814,0.0813,0.0813,0.0813,0.0812,0.0711,0.0719,0.0731,0.0772,0.0835,0.0874,0.1022,0.1054,0.1106,0.1192,0.134,0.1339,0.1321,0.1266,0.1267,0.1268,0.1269,0.127,0.1271,0.0769,0.0776,0.0815,0.0846,0.089,0.0986,0.114,0.1276,0.1458,0.1477,0.1478,0.1407,0.1158,0.1137,0.1288,0.1285,0.1282,0.1281,0.128,0.0856,0.0842,0.0906,0.0943,0.1043,0.1153,0.1298,0.1613,0.1786,0.1911,0.1806,0.1645,0.1674,0.165,0.1643,0.1917,0.1917,0.1917,0.1917,0.0912,0.0908,0.0997,0.1071,0.1176,0.1246,0.1528,0.1763,0.1996,0.2079,0.2064,0.1931,0.1905,0.1938,0.1907,0.1901,0.2234,0.2234,0.2234,0.0975,0.0992,0.1071,0.1124,0.1228,0.1358,0.1549,0.1751,0.2095,0.2239,0.2044,0.2031,0.1814,0.1774,0.1793,0.175,0.1727,0,0]},{"header":{"parameterUnit":"m.s-1","parameterCategory":2,"la1":30.2992,"la2":30.254,"lo1":-89.0895,"lo2":-89.0443,"dy":0.0025,"dx":0.0025,"nx":19,"ny":19,"refTime":"2026-04-15T09:00:00:Z","depth":"0","parameterNumber":3,"parameterNumberName":"V-component_of_CURRENTS"},"data":[0,0,0,0.0093,0.0094,0.0069,0.0069,0.0013,0.0013,0,0,0,0,0,0,0,0,0,0,0,0.0108,0.0108,0.0093,0.0094,0.0069,0.0069,0.0013,0.0013,0,0,0,0,0,0,0,0,0,0,0,0.0108,0.0108,0.0109,0.0094,0.0069,0.0069,0.0013,0.0034,0,0,0,0,0,0,0,0,0,0,0.0059,0.0073,0.0108,0.0109,0.0094,0.0069,0.0069,0.0035,0.0032,0.0023,0,0.0037,0,0.0029,0.001,0.001,0,0,0,0.0076,0.0075,0.008,0.0109,0.0094,0.0069,0.0075,0.0034,0.0031,0.002,0.0037,0.0034,0.0028,0.001,0.001,0.001,0.001,0,0,0.0078,0.0085,0.0082,0.0079,0.0111,0.0076,0.0075,0.0032,0.0032,0.0036,0.0033,0.0027,0.001,0.0009,0.0009,0.001,0,0,0,0.0093,0.0086,0.0093,0.0082,0.0082,0.0076,0.0074,0.0033,0.004,0.0032,0.0026,0.0009,0.0009,0.0009,0.001,0.0045,0,0,0,0.0093,0.0097,0.0094,0.0095,0.0084,0.0058,0.0076,0.0043,0.0037,0.0027,0.0009,0.0009,0.0009,0.0009,0.0043,0.0101,0,0,0,0.0105,0.0097,0.0105,0.0096,0.0094,0.0059,0.0061,0.0041,0.0034,0.001,0.0008,0.0009,0.0009,0.0042,0.0097,0.0243,0,0,0,0.0098,0.01,0.0105,0.0099,0.0095,0.0078,0.0061,0.0033,0.0012,0.0009,0.0009,0.001,0.0041,0.0094,0.0239,0.0416,0.0451,0,0,0.0092,0.01,0.0093,0.0097,0.0094,0.0079,0.0071,0.0035,0.0023,0.0017,0.0017,0.0044,0.0097,0.0242,0.0457,0.0491,0,0,0,0.0083,0.009,0.0085,0.0089,0.0079,0.0089,0.0056,0.0055,0.0052,0.0019,0.0048,0.0082,0.0173,0.027,0.0296,0.0149,0.0013,0.0013,0.0013,0.0099,0.0093,0.0091,0.0094,0.0092,0.009,0.0099,0.01,0.0065,0.008,0.0112,0.0252,0.035,0.0374,0.0216,0.0091,0.0091,0.0091,0.0092,0.0107,0.0108,0.0113,0.0108,0.0126,0.0128,0.0152,0.0147,0.0235,0.0157,0.0244,0.0302,0.0406,0.0227,0.0094,0.0093,0.0093,0.0093,0.0093,0.0115,0.0117,0.0114,0.0136,0.016,0.0171,0.0309,0.0296,0.0304,0.0366,0.0554,0.0555,0.0407,0.0439,0.044,0.0441,0.0442,0.0442,0.0443,0.0131,0.0129,0.0163,0.0172,0.0208,0.0299,0.0427,0.055,0.0676,0.0657,0.0659,0.0448,0.036,0.0357,0.0457,0.0454,0.0452,0.0451,0.045,0.0162,0.0168,0.0231,0.0271,0.0394,0.0616,0.0702,0.1015,0.1105,0.1198,0.082,0.0831,0.0867,0.0846,0.0856,0.1079,0.1079,0.1079,0.108,0.0205,0.0203,0.0344,0.0453,0.0623,0.0781,0.123,0.139,0.1276,0.1142,0.0988,0.0873,0.0854,0.0879,0.0857,0.0861,0.1081,0.1081,0.108,0.0267,0.0302,0.0439,0.0543,0.0737,0.1055,0.1481,0.1639,0.134,0.1052,0.0744,0.0744,0.0534,0.0517,0.0516,0.0497,0.0489,0,0]}],[{"header":{"parameterUnit":"m.s-1","parameterCategory":2,"la1":30.2992,"la2":30.254,"lo1":-89.0895,"lo2":-89.0443,"dy":0.0025,"dx":0.0025,"nx":19,"ny":19,"refTime":"2026-04-15T09:00:00:Z","depth":"2","parameterNumber":2,"parameterNumberName":"U-component_of_CURRENTS"},"data":[0,0,0,0.0529,0.0528,0.0502,0.0502,0.0556,0.0557,0,0,0,0,0,0,0,0,0,0,0,0.0549,0.0548,0.0529,0.0528,0.0502,0.0502,0.0556,0.0557,0,0,0,0,0,0,0,0,0,0,0,0.0549,0.0549,0.0548,0.0527,0.0502,0.0502,0.0556,0.0557,0,0,0,0,0,0,0,0,0,0,0.0573,0.0571,0.0549,0.0548,0.0527,0.0501,0.0502,0.0556,0.0557,0.0589,0,0.0581,0,0.0561,0.0561,0.0561,0,0,0,0.0541,0.0571,0.0562,0.0548,0.0527,0.0501,0.0517,0.0556,0.0557,0.059,0.0581,0.0582,0.0562,0.0562,0.0562,0.0678,0.0679,0,0,0.0542,0.0549,0.0561,0.0562,0.0517,0.0518,0.0516,0.0556,0.0559,0.0581,0.0583,0.0563,0.0562,0.0563,0.0678,0.0679,0,0,0,0.0537,0.055,0.0539,0.0561,0.0544,0.0517,0.0515,0.0557,0.0552,0.0583,0.0564,0.0562,0.0563,0.0677,0.0678,0.0731,0,0,0,0.0539,0.0546,0.0539,0.0544,0.0542,0.0537,0.0516,0.055,0.0553,0.0563,0.0562,0.0564,0.0676,0.0677,0.0727,0.0802,0,0,0,0.055,0.0547,0.0542,0.0544,0.0525,0.0535,0.0533,0.055,0.0541,0.0561,0.0564,0.0675,0.0677,0.0724,0.0796,0.0974,0,0,0,0.0562,0.0557,0.0543,0.0547,0.0525,0.0539,0.0532,0.0541,0.0558,0.0563,0.0676,0.0678,0.0723,0.0792,0.0967,0.1063,0.11,0,0,0.0564,0.0558,0.0564,0.055,0.0572,0.0544,0.0598,0.0608,0.0604,0.0669,0.0671,0.0728,0.0795,0.0972,0.117,0.1204,0,0,0,0.0571,0.0584,0.0588,0.0597,0.0593,0.0633,0.0628,0.0647,0.0699,0.0619,0.0752,0.0794,0.0904,0.0948,0.0975,0.0687,0.0687,0.0686,0.0686,0.062,0.0619,0.0646,0.066,0.0675,0.07,0.0748,0.0783,0.0752,0.079,0.0851,0.1046,0.109,0.1112,0.0841,0.0841,0.0841,0.0841,0.0841,0.067,0.0699,0.0708,0.0732,0.0765,0.0813,0.0884,0.0887,0.1039,0.0939,0.1043,0.1018,0.1145,0.0846,0.0845,0.0845,0.0844,0.0844,0.0843,0.0731,0.0739,0.075,0.0792,0.0854,0.0893,0.1043,0.1076,0.1132,0.1217,0.135,0.1349,0.1136,0.1295,0.1297,0.1298,0.1299,0.1299,0.13,0.0784,0.0792,0.083,0.0861,0.0904,0.0999,0.1159,0.1297,0.147,0.148,0.1481,0.1203,0.1188,0.1167,0.1317,0.1314,0.1312,0.131,0.1309,0.0864,0.0851,0.0912,0.095,0.1053,0.1172,0.1314,0.1619,0.179,0.1903,0.1652,0.1638,0.1665,0.1642,0.1634,0.1897,0.1897,0.1897,0.1898,0.0916,0.0913,0.1001,0.1077,0.1187,0.1267,0.152,0.1646,0.1801,0.1792,0.1795,0.1633,0.1614,0.1627,0.1604,0.1589,0.1841,0.184,0.1839,0.0977,0.0991,0.1071,0.1127,0.1242,0.1388,0.1522,0.1514,0.1632,0.182,0.1606,0.1928,0.1691,0.1661,0.1674,0.164,0.1614,0,0]},{"header":{"parameterUnit":"m.s-1","parameterCategory":2,"la1":30.2992,"la2":30.254,"lo1":-89.0895,"lo2":-89.0443,"dy":0.0025,"dx":0.0025,"nx":19,"ny":19,"refTime":"2026-04-15T09:00:00:Z","depth":"2","parameterNumber":3,"parameterNumberName":"V-component_of_CURRENTS"},"data":[0,0,0,-0.0036,-0.0036,-0.0058,-0.0059,-0.0104,-0.0104,0,0,0,0,0,0,0,0,0,0,0,-0.0023,-0.0023,-0.0036,-0.0036,-0.0058,-0.0059,-0.0104,-0.0104,0,0,0,0,0,0,0,0,0,0,0,-0.0023,-0.0023,-0.0022,-0.0036,-0.0058,-0.0059,-0.0104,-0.0087,0,0,0,0,0,0,0,0,0,0,-0.0065,-0.0052,-0.0023,-0.0022,-0.0036,-0.0058,-0.0059,-0.0086,-0.0088,-0.0093,0,-0.0079,0,-0.0086,-0.0106,-0.0106,0,0,0,-0.0054,-0.005,-0.0046,-0.0022,-0.0036,-0.0058,-0.0053,-0.0087,-0.0089,-0.0095,-0.0079,-0.0081,-0.0087,-0.0106,-0.0106,-0.0094,-0.0094,0,0,-0.0052,-0.0044,-0.0044,-0.0046,-0.0018,-0.0052,-0.0054,-0.0089,-0.0088,-0.0079,-0.0082,-0.0088,-0.0106,-0.0107,-0.0095,-0.0094,0,0,0,-0.0037,-0.0043,-0.0038,-0.0044,-0.0043,-0.0053,-0.0054,-0.0087,-0.0081,-0.0083,-0.0088,-0.0107,-0.0107,-0.0095,-0.0095,-0.0062,0,0,0,-0.0037,-0.0032,-0.0036,-0.0034,-0.0042,-0.0065,-0.0051,-0.0079,-0.0083,-0.0088,-0.0107,-0.0107,-0.0095,-0.0095,-0.0064,-0.0017,0,0,0,-0.0026,-0.0032,-0.0024,-0.0033,-0.0034,-0.0064,-0.0062,-0.008,-0.0085,-0.0106,-0.0107,-0.0096,-0.0095,-0.0066,-0.0021,0.0099,0,0,0,-0.0032,-0.0028,-0.0024,-0.0025,-0.0033,-0.0046,-0.0062,-0.0085,-0.0103,-0.0107,-0.0095,-0.0095,-0.0066,-0.0023,0.0095,0.0114,0.0133,0,0,-0.0036,-0.0029,-0.0031,-0.0028,-0.0029,-0.0045,-0.0049,-0.0079,-0.0089,-0.0089,-0.0089,-0.0064,-0.0021,0.0098,0.0159,0.0177,0,0,0,-0.0039,-0.0033,-0.0037,-0.0031,-0.0037,-0.0029,-0.0057,-0.0058,-0.0057,-0.0091,-0.0057,-0.003,0.0044,0.0047,0.0061,-0.0091,-0.0091,-0.0091,-0.0091,-0.0031,-0.0032,-0.0032,-0.0026,-0.0023,-0.0023,-0.0015,-0.0013,-0.0041,-0.0026,-0.0,0.0119,0.0118,0.013,-0.0014,-0.0014,-0.0013,-0.0013,-0.0013,-0.0026,-0.0025,-0.0014,-0.0015,0.0005,0.0011,0.0036,0.0033,0.0107,0.0044,0.0114,0.0083,0.0148,-0.0011,-0.0011,-0.0011,-0.0012,-0.0012,-0.0012,-0.0024,-0.0022,-0.002,0.0005,0.0031,0.0049,0.0168,0.016,0.0166,0.0217,0.0285,0.0284,0.0184,0.0277,0.0278,0.0278,0.0279,0.028,0.028,-0.0017,-0.0015,0.0017,0.0032,0.0066,0.015,0.0267,0.0363,0.0411,0.0361,0.0361,0.0219,0.021,0.0204,0.0291,0.0289,0.0288,0.0287,0.0286,-0.0,0.0011,0.0065,0.0103,0.0215,0.037,0.0458,0.0637,0.0708,0.0724,0.0454,0.0446,0.0462,0.0449,0.0449,0.0596,0.0596,0.0596,0.0596,0.0029,0.0031,0.015,0.0243,0.0382,0.049,0.0755,0.0762,0.0692,0.0552,0.0553,0.0442,0.0431,0.0438,0.0425,0.0421,0.0562,0.0561,0.0561,0.0072,0.0102,0.0211,0.0305,0.0461,0.0674,0.0856,0.0804,0.0612,0.0554,0.0487,0.0606,0.0439,0.0424,0.0428,0.0409,0.0402,0,0]}],[{"header":{"parameterUnit":"m.s-1","parameterCategory":2,"la1":30.2992,"la2":30.254,"lo1":-89.0895,"lo2":-89.0443,"dy":0.0025,"dx":0.0025,"nx":19,"ny":19,"refTime":"2026-04-15T09:00:00:Z","depth":"4","parameterNumber":2,"parameterNumberName":"U-component_of_CURRENTS"},"data":[0,0,0,0.0557,0.056,0.0658,0.0659,0.0672,0.0672,0,0,0,0,0,0,0,0,0,0,0,0.0514,0.0515,0.0557,0.056,0.0658,0.0659,0.0672,0.0672,0,0,0,0,0,0,0,0,0,0,0,0.0514,0.0515,0.0515,0.056,0.0658,0.0659,0.0672,0.0624,0,0,0,0,0,0,0,0,0,0,0.0542,0.0546,0.0514,0.0515,0.0561,0.0658,0.0659,0.0623,0.0627,0.0597,0,0.0615,0,0.0647,0.067,0.067,0,0,0,0.0554,0.0543,0.0546,0.0515,0.0562,0.0658,0.0612,0.0626,0.0631,0.0601,0.0615,0.0617,0.0648,0.067,0.067,0.0712,0.0713,0,0,0.0549,0.0552,0.0543,0.0549,0.0588,0.0609,0.0615,0.063,0.0646,0.0615,0.0618,0.0648,0.067,0.067,0.0712,0.0712,0,0,0,0.0537,0.0548,0.0554,0.0547,0.0577,0.0612,0.0619,0.0645,0.0641,0.0618,0.0648,0.067,0.067,0.0711,0.0712,0.0753,0,0,0,0.0533,0.0541,0.0551,0.0557,0.0577,0.0635,0.0634,0.064,0.0644,0.0648,0.067,0.067,0.071,0.0711,0.0751,0.0757,0,0,0,0.0509,0.054,0.0546,0.0556,0.0601,0.0636,0.0635,0.0642,0.0661,0.067,0.067,0.071,0.0711,0.0749,0.0754,0.0834,0,0,0,0.0514,0.0524,0.0547,0.0578,0.06,0.0649,0.0635,0.0659,0.0667,0.067,0.071,0.0712,0.0748,0.0752,0.0831,0.0711,0,0,0,0.0519,0.0526,0.0542,0.0564,0.0616,0.0635,0.0694,0.0683,0.0681,0.0694,0.0697,0.0752,0.0754,0.0834,0.0795,0,0,0,0,0.0539,0.0543,0.0572,0.0608,0.0651,0.07,0.0709,0.0728,0.0756,0.0696,0.0769,0.0769,0.0818,0.074,0.0719,0.0719,0.0718,0.0718,0.0718,0.0525,0.0547,0.0584,0.0621,0.066,0.0727,0.0769,0.0792,0.0784,0.0812,0.0816,0.0919,0.0838,0.0837,0.0837,0.0837,0.0837,0.0837,0.0838,0.0515,0.0527,0.0572,0.0617,0.0677,0.0728,0.0807,0.0829,0.0918,0.0883,0.093,0.0803,0.0842,0.0841,0.0841,0.084,0.084,0.0839,0.0839,0.0484,0.0495,0.0533,0.0597,0.0672,0.0755,0.0842,0.0901,0.0948,0.0989,0.0946,0.0965,0.0949,0.1036,0.1036,0.1037,0.1037,0.1037,0.1037,0.0442,0.0474,0.0531,0.0608,0.0659,0.0766,0.0898,0.0958,0.1015,0.0982,0.1019,0.0987,0.098,0.0962,0.1044,0.1042,0.1042,0.1041,0.1041,0.0416,0.0459,0.0515,0.057,0.0688,0.0748,0.0901,0.0984,0.1064,0.1056,0.0994,0.0994,0.0975,0.097,0.0949,0.1031,0.103,0.1029,0,0.0416,0.0438,0.0515,0.0554,0.0625,0.0713,0.0816,0.0914,0.0947,0.0902,0.1027,0.0951,0.0952,0.0922,0.0916,0.0888,0,0,0,0.0438,0.0453,0.0491,0.0519,0.0556,0.0678,0.0838,0.0838,0.0953,0.0977,0.0998,0.1006,0.1033,0.1062,0.1035,0.1027,0.0997,0,0]},{"header":{"parameterUnit":"m.s-1","parameterCategory":2,"la1":30.2992,"la2":30.254,"lo1":-89.0895,"lo2":-89.0443,"dy":0.0025,"dx":0.0025,"nx":19,"ny":19,"refTime":"2026-04-15T09:00:00:Z","depth":"4","parameterNumber":3,"parameterNumberName":"V-component_of_CURRENTS"},"data":[0,0,0,-0.0201,-0.0203,-0.0348,-0.0349,-0.0353,-0.0352,0,0,0,0,0,0,0,0,0,0,0,-0.0166,-0.0166,-0.0201,-0.0203,-0.0348,-0.0349,-0.0353,-0.0352,0,0,0,0,0,0,0,0,0,0,0,-0.0166,-0.0166,-0.0167,-0.0203,-0.0348,-0.0349,-0.0353,-0.0298,0,0,0,0,0,0,0,0,0,0,-0.0183,-0.0172,-0.0166,-0.0167,-0.0204,-0.0347,-0.0349,-0.0297,-0.0301,-0.0223,0,-0.0239,0,-0.0266,-0.0344,-0.0344,0,0,0,-0.024,-0.017,-0.0189,-0.0167,-0.0204,-0.0347,-0.0293,-0.0301,-0.0305,-0.0226,-0.0239,-0.024,-0.0266,-0.0344,-0.0343,-0.0197,-0.0196,0,0,-0.0232,-0.021,-0.0187,-0.0191,-0.0227,-0.0288,-0.0297,-0.0306,-0.0309,-0.0239,-0.0241,-0.0266,-0.0343,-0.0342,-0.0197,-0.0196,0,0,0,-0.0184,-0.0204,-0.0229,-0.019,-0.0214,-0.0291,-0.0302,-0.0311,-0.0313,-0.0241,-0.0266,-0.0342,-0.0341,-0.0198,-0.0197,-0.0164,0,0,0,-0.0181,-0.0173,-0.0225,-0.0215,-0.0215,-0.0289,-0.0306,-0.0314,-0.0316,-0.0266,-0.0342,-0.034,-0.0199,-0.0198,-0.0167,-0.0148,0,0,0,-0.0162,-0.0171,-0.018,-0.0213,-0.0256,-0.029,-0.0299,-0.0318,-0.0327,-0.0344,-0.0339,-0.02,-0.0198,-0.017,-0.0152,-0.0174,0,0,0,-0.0145,-0.015,-0.018,-0.0177,-0.0254,-0.0277,-0.03,-0.0321,-0.0333,-0.0342,-0.0199,-0.0197,-0.017,-0.0154,-0.0176,-0.0164,0,0,0,-0.0136,-0.0148,-0.0141,-0.017,-0.0187,-0.0261,-0.0254,-0.0278,-0.0272,-0.0191,-0.019,-0.0166,-0.0152,-0.0174,-0.0054,0,0,0,0,-0.0126,-0.0129,-0.0138,-0.0153,-0.0177,-0.0198,-0.0241,-0.0227,-0.0193,-0.0264,-0.0137,-0.0129,-0.0145,-0.014,-0.0188,-0.0188,-0.0189,-0.0189,-0.0189,-0.0133,-0.0124,-0.0121,-0.0123,-0.0122,-0.0147,-0.0146,-0.0124,-0.0135,-0.0098,-0.0081,-0.0044,-0.0032,-0.006,-0.006,-0.0059,-0.0059,-0.0059,-0.0059,-0.0122,-0.0111,-0.0094,-0.0088,-0.008,-0.0066,-0.0025,-0.0034,-0.0004,-0.0008,-0.0027,-0.0077,-0.0055,-0.0056,-0.0057,-0.0057,-0.0057,-0.0058,-0.0058,-0.0124,-0.0115,-0.0108,-0.0076,-0.0038,-0.0018,0.0045,0.0053,0.0036,0.0038,-0.0004,-0.0029,-0.0059,0.0003,0.0003,0.0003,0.0003,0.0003,0.0003,-0.0133,-0.012,-0.0104,-0.0062,-0.0034,0.0026,0.0074,0.0074,0.0043,0.0045,0.0028,-0.0024,-0.0026,-0.0055,0.0003,0.0003,0.0003,0.0003,0.0003,-0.0134,-0.0129,-0.0099,-0.0076,0.0001,0.0054,0.0099,0.0092,0.0074,0.0036,0.0036,0.0034,0.0013,0.001,-0.0021,0.005,0.0051,0.0051,0,-0.0142,-0.0133,-0.0108,-0.0064,0.0008,0.007,0.0108,0.01,0.0047,0.0061,0.0019,0.0019,0.0018,-0.0008,-0.001,-0.0045,0,0,0,-0.0152,-0.0139,-0.0129,-0.0081,-0.0001,0.0079,0.0121,0.0108,0.0095,0.0055,0.0059,0.0057,0.0,0.0004,-0.0035,-0.0037,-0.0088,0,0]}]]